Weather History for Jackson, KY

Change the Weather History Date:

Monday, July 22, 2013

  Actual Average Record
Temperature  
Mean Temperature 75 °F 75 °F  
Max Temperature 80 °F 85 °F 93 °F (1991)
Min Temperature 69 °F 66 °F 58 °F (2007)
Degree Days  
Heating Degree Days 0 0  
Month to date heating degree days 0 0  
Since 1 June heating degree days 0 12  
Since 1 July heating degree days 0 0  
Cooling Degree Days 10 10  
Month to date cooling degree days 227 226  
Year to date cooling degree days 599 585  
Since 1 June cooling degree days 451 449  
Growing Degree Days 24 (Base 50)    
Moisture  
Dew Point 69 °F    
Average Humidity 87    
Maximum Humidity 100    
Minimum Humidity 74    
Precipitation  
Precipitation 0.68 in 0.16 in 1.41 in (1997)
Month to date precipitation 6.11 3.28  
Year to date precipitation 32.67 28.49  
Snow  
Snow 0.00 in 0.00 in - ()
Month to date snowfall 0.0 0.0  
Since 1 June snowfall 0.0 0.0  
Since 1 July snowfall 0.0 0.0  
Snow Depth 0.00 in    
Sea Level Pressure  
Sea Level Pressure 29.89 in    
Wind  
Wind Speed 1 mph (WNW)    
Max Wind Speed 5 mph    
Max Gust Speed 10 mph    
Visibility 6 miles    
Events Fog , Rain    
T = Trace of Precipitation, MM = Missing Value Source: NWS Daily Summary

Daily Weather History Graph

Daily Weather History Graph

Search for Another Location

Airport:

Trip Planner

Search our weather history database for the weather conditions in past years. The results will help you decide how hot, cold, wet, or windy it might be!

Date:

Astronomy

Jul. 22, 2013 Rise Set
Actual Time 6:29 AM EDT 8:49 PM EDT
Civil Twilight 5:59 AM EDT 9:19 PM EDT
Nautical Twilight 5:22 AM EDT 9:56 PM EDT
Astronomical Twilight 4:42 AM EDT 10:36 PM EDT
Moon 8:37 PM EDT (7/22) 6:23 AM EDT (7/22)
Length of Visible Light 15h 20m
Length of Day
14h 20m
Full, 100% of the Moon is Illuminated
Jul 22
Full
Jul 22
Full
Jul 29
Last Quarter
Aug 6
New
Aug 14
First Quarter

Hourly Weather History & Observations

Time (EDT) Temp. Dew Point Humidity Pressure Visibility Wind Dir Wind Speed Gust Speed Precip Events Conditions
12:46 AM 69.8 °F 69.8 °F 100% 30.00 in 2.0 mi Calm Calm - N/A   Scattered Clouds
12:53 AM 70.0 °F 69.1 °F 97% 29.95 in 1.2 mi Calm Calm - N/A   Mostly Cloudy
12:57 AM 69.8 °F 69.8 °F 100% 29.99 in 3.0 mi Calm Calm - N/A   Mostly Cloudy
1:53 AM 70.0 °F 69.1 °F 97% 29.94 in 4.0 mi Calm Calm - N/A   Scattered Clouds
1:56 AM 69.8 °F 69.8 °F 100% 29.98 in 3.0 mi Calm Calm - N/A   Mostly Cloudy
2:03 AM 69.8 °F 69.8 °F 100% 29.98 in 1.8 mi Calm Calm - N/A   Mostly Cloudy
2:14 AM 69.8 °F 69.8 °F 100% 29.97 in 3.0 mi Calm Calm - N/A   Mostly Cloudy
2:53 AM 70.0 °F 69.1 °F 97% 29.92 in 6.0 mi Calm Calm - N/A   Overcast
3:53 AM 70.0 °F 68.0 °F 93% 29.90 in 7.0 mi Calm Calm - N/A   Overcast
4:28 AM 69.8 °F 68.0 °F 94% 29.94 in 10.0 mi Calm Calm - N/A   Scattered Clouds
4:53 AM 69.1 °F 68.0 °F 96% 29.90 in 10.0 mi Calm Calm - N/A   Mostly Cloudy
5:00 AM 69.8 °F 68.0 °F 94% 29.94 in 10.0 mi Calm Calm - N/A   Mostly Cloudy
5:29 AM 69.8 °F 68.0 °F 94% 29.93 in 9.0 mi Calm Calm - N/A   Overcast
5:53 AM 70.0 °F 68.0 °F 93% 29.89 in 10.0 mi Calm Calm - N/A   Overcast
6:53 AM 70.0 °F 68.0 °F 93% 29.91 in 10.0 mi Calm Calm - N/A   Overcast
7:19 AM 69.8 °F 68.0 °F 94% 29.95 in 3.0 mi Calm Calm - N/A   Mostly Cloudy
7:29 AM 69.8 °F 68.0 °F 94% 29.95 in 9.0 mi Calm Calm - N/A   Partly Cloudy
7:53 AM 69.1 °F 68.0 °F 96% 29.91 in 9.0 mi Calm Calm - N/A   Clear
8:53 AM 72.0 °F 69.1 °F 91% 29.92 in 9.0 mi Calm Calm - N/A   Mostly Cloudy
9:18 AM 73.4 °F 69.8 °F 88% 29.96 in 10.0 mi Variable 3.5 mph - N/A   Scattered Clouds
9:30 AM 73.4 °F 69.8 °F 88% 29.96 in 10.0 mi South 4.6 mph - N/A   Mostly Cloudy
9:53 AM 75.0 °F 69.1 °F 82% 29.91 in 10.0 mi Variable 4.6 mph - N/A   Mostly Cloudy
10:06 AM 75.2 °F 69.8 °F 83% 29.95 in 10.0 mi Calm Calm - N/A   Scattered Clouds
10:53 AM 75.0 °F 70.0 °F 84% 29.91 in 10.0 mi Variable 3.5 mph - N/A   Mostly Cloudy
11:37 AM 77.0 °F 69.8 °F 78% 29.94 in 10.0 mi Calm Calm - N/A   Mostly Cloudy
11:53 AM 78.1 °F 69.1 °F 74% 29.89 in 10.0 mi Variable 5.8 mph - N/A   Mostly Cloudy
12:19 PM 78.8 °F 68.0 °F 69% 29.92 in 10.0 mi Variable 5.8 mph - N/A   Scattered Clouds
12:53 PM 77.0 °F 69.1 °F 76% 29.88 in 10.0 mi Variable 5.8 mph - N/A   Mostly Cloudy
1:53 PM 77.0 °F 69.1 °F 76% 29.85 in 10.0 mi Calm Calm - 0.00 in Rain Light Rain
2:12 PM 73.4 °F 69.8 °F 88% 29.90 in 1.8 mi Calm Calm - 0.02 in Rain Rain
2:19 PM 73.4 °F 69.8 °F 88% 29.90 in 1.2 mi Calm Calm - 0.06 in Rain Rain
2:29 PM 71.6 °F 71.6 °F 100% 29.90 in 0.8 mi Variable 3.5 mph - 0.10 in Rain Heavy Rain
2:39 PM 71.6 °F 71.6 °F 100% 29.90 in 0.2 mi Variable 5.8 mph - 0.29 in Fog , Rain Heavy Rain
2:47 PM 71.6 °F 71.6 °F 100% 29.90 in 1.0 mi Variable 3.5 mph - 0.41 in Rain Rain
2:50 PM 71.6 °F 69.8 °F 94% 29.89 in 2.0 mi Calm Calm - 0.42 in Rain Rain
2:53 PM 72.0 °F 70.0 °F 93% 29.86 in 2.5 mi Calm Calm - 0.42 in Rain Light Rain
3:00 PM 71.6 °F 71.6 °F 100% 29.90 in 3.0 mi Calm Calm - 0.00 in Rain Light Rain
3:04 PM 71.6 °F 71.6 °F 100% 29.89 in 2.5 mi Calm Calm - 0.00 in   Overcast
3:10 PM 73.4 °F 69.8 °F 88% 29.89 in 3.0 mi Calm Calm - 0.00 in Rain Light Rain
3:21 PM 73.4 °F 69.8 °F 88% 29.88 in 2.5 mi Calm Calm - 0.01 in Rain Light Rain
3:27 PM 71.6 °F 69.8 °F 94% 29.88 in 1.5 mi SSE 4.6 mph - 0.03 in Rain Heavy Rain
3:38 PM 71.6 °F 69.8 °F 94% 29.87 in 0.8 mi Variable 3.5 mph - 0.11 in Rain Heavy Rain
3:49 PM 71.6 °F 69.8 °F 94% 29.87 in 1.5 mi Variable 6.9 mph - 0.24 in Rain Light Rain
3:51 PM 71.6 °F 69.8 °F 94% 29.87 in 3.0 mi Calm Calm - 0.24 in Rain Light Rain
3:53 PM 72.0 °F 70.0 °F 93% 29.83 in 5.0 mi Calm Calm - 0.24 in Rain Light Rain
4:25 PM 71.6 °F 71.6 °F 100% 29.87 in 1.8 mi Variable 3.5 mph - 0.00 in Rain Rain
4:36 PM 73.4 °F 71.6 °F 94% 29.86 in 3.0 mi Calm Calm - 0.02 in Rain Light Rain
4:53 PM 75.0 °F 73.0 °F 94% 29.81 in 10.0 mi Variable 3.5 mph - 0.02 in   Mostly Cloudy
5:11 PM 73.4 °F 71.6 °F 94% 29.85 in 10.0 mi Variable 4.6 mph - N/A   Mostly Cloudy
5:44 PM 73.4 °F 69.8 °F 88% 29.86 in 10.0 mi Variable 4.6 mph - N/A   Overcast
5:53 PM 73.9 °F 70.0 °F 87% 29.82 in 10.0 mi Variable 4.6 mph - N/A   Overcast
6:02 PM 73.4 °F 69.8 °F 88% 29.85 in 10.0 mi WNW 3.5 mph - N/A   Overcast
6:38 PM 71.6 °F 69.8 °F 94% 29.85 in 10.0 mi WNW 4.6 mph - 0.00 in   Mostly Cloudy
6:49 PM 71.6 °F 69.8 °F 94% 29.85 in 10.0 mi NNW 5.8 mph - 0.00 in   Mostly Cloudy
6:53 PM 72.0 °F 69.1 °F 91% 29.81 in 10.0 mi NW 5.8 mph - 0.00 in   Mostly Cloudy
7:38 PM 71.6 °F 69.8 °F 94% 29.85 in 10.0 mi Variable 3.5 mph - N/A   Scattered Clouds
7:53 PM 72.0 °F 70.0 °F 93% 29.81 in 10.0 mi Calm Calm - N/A   Partly Cloudy
8:14 PM 71.6 °F 69.8 °F 94% 29.86 in 8.0 mi Calm Calm - N/A   Scattered Clouds
8:49 PM 71.6 °F 69.8 °F 94% 29.86 in 2.0 mi Calm Calm - N/A   Overcast
8:53 PM 72.0 °F 70.0 °F 93% 29.82 in 4.0 mi Calm Calm - N/A   Overcast
9:53 PM 70.0 °F 68.0 °F 93% 29.84 in 10.0 mi Calm Calm - N/A   Mostly Cloudy
10:00 PM 69.8 °F 68.0 °F 94% 29.88 in 10.0 mi Calm Calm - N/A   Mostly Cloudy
10:31 PM 69.8 °F 68.0 °F 94% 29.89 in 9.0 mi Calm Calm - N/A   Overcast
10:49 PM 69.8 °F 68.0 °F 94% 29.89 in 7.0 mi Calm Calm - N/A   Overcast
10:53 PM 70.0 °F 68.0 °F 93% 29.85 in 7.0 mi Calm Calm - N/A   Overcast
11:32 PM 69.8 °F 68.0 °F 94% 29.88 in 6.0 mi Calm Calm - N/A   Overcast
11:46 PM 69.8 °F 68.0 °F 94% 29.88 in 6.0 mi Calm Calm - N/A   Mostly Cloudy
11:53 PM 69.1 °F 68.0 °F 96% 29.84 in 6.0 mi Calm Calm - N/A   Mostly Cloudy